Regional Weather Roundup
Issued by NWS Sioux Falls, SD

Home | Current Version | Previous Version | Text Only | Print | Product List | Glossary Off
Versions: 1 2 3 4 5 6 7 8 9 10 11 12 13 14 15 16 17 18 19 20 21 22 23 24 25 26 27 28 29 30 31 32 33 34 35 36 37 38 39 40 41 42 43 44 45 46 47 48 49 50

000
ASUS43 KFSD 180102
RWRFSD

WEATHER ROUNDUP FOR SE SOUTH DAKOTA/SW MINNESOTA/NW IOWA
NATIONAL WEATHER SERVICE SIOUX FALLS SD
800 PM CDT WED SEP 17 2014

NOTE: "FAIR" INDICATES FEW OR NO CLOUDS BELOW 12,000 FEET WITH NO
SIGNIFICANT WEATHER AND OR OBSTRUCTIONS TO VISIBILITY.


SDZ038>040-050-052>070-180200-
SOUTHEAST SOUTH DAKOTA

CITY           SKY/WX    TMP DP  RH WIND       PRES   REMARKS
CHAMBERLAIN    PTCLDY    68  55  64 E3        29.95R
HURON          PTCLDY    62  51  67 CALM      29.94R
MADISON        FAIR      63  59  88 NE5       29.96S
MITCHELL       PTCLDY    65  56  72 NE7       29.94R
SIOUX FALLS    PTCLDY    65  56  72 N5        29.94R
WINNER         FAIR      69  56  62 E10       29.94R
YANKTON        CLEAR     68  55  64 NE7       29.92R
$$

MNZ071-072-080-081-089-090-097-098-180200-
SOUTHWEST MINNESOTA

CITY           SKY/WX    TMP DP  RH WIND       PRES   REMARKS
FAIRMONT       PTCLDY    64  50  59 NE6       29.96R
JACKSON        MOCLDY    64  55  72 E6        29.97R
LUVERNE        PTCLDY    66  55  68 NE7       29.95R
MARSHALL       PTCLDY    66  52  59 E6        29.95S
MONTEVIDEO     PTCLDY    66  55  68 CALM      29.97R
PIPESTONE      PTCLDY    66  55  68 CALM      29.97R
REDWOOD FALLS  CLEAR     70  52  52 E3        29.95R
TRACY          CLEAR     62  57  83 CALM      29.97R
WINDOM         CLEAR     63  55  77 NE5       29.97R
WORTHINGTON    MOCLDY    66  57  72 NE5       29.97R
$$

IAZ001>003-012>014-020>022-031-032-NEZ013-014-SDZ071-180200-
NORTHWEST IOWA

CITY           SKY/WX    TMP DP  RH WIND       PRES   REMARKS
CHEROKEE       PTCLDY    66  57  74 E5        29.94R
DENISON        CLEAR     66  59  77 E6        29.92R
ESTHERVILLE    CLOUDY    66  58  75 CALM      29.95R
LE MARS        PTCLDY    70  61  73 SE6       29.93R
ORANGE CITY    PTCLDY    70  57  64 CALM      29.94R
SHELDON        PTCLDY    63  59  88 SE5       29.93R
SIOUX CITY     CLEAR     71  58  63 E5        29.92R
SPENCER        PTCLDY    65  57  75 E3        29.95R
STORM LAKE     PTCLDY    63  59  88 SE5       29.95R
$$

ABBREVIATIONS USED IN REMARKS
   TC - TEMPERATURE IN CELSIUS
  WCI - WIND CHILL INDEX
   HX - HEAT INDEX
  VSB - VISIBILITY



USA.gov is the U.S. government's official web portal to all federal, state and local government web resources and services.